Change the Weather History Date:

Monday, May 5, 2014

  Actual Average Record
Temperature  
Mean Temperature 47 °F 58 °F  
Max Temperature 57 °F 70 °F 89 °F (1949)
Min Temperature 37 °F 47 °F 32 °F (1956)
Degree Days  
Heating Degree Days 18 7  
Month to date heating degree days 51 39  
Since 1 July heating degree days 5338 5022  
Cooling Degree Days 0 1  
Month to date cooling degree days 0 5  
Year to date cooling degree days 18 21  
Moisture  
Dew Point 34 °F    
Average Humidity 61    
Maximum Humidity 82    
Minimum Humidity 40    
Precipitation  
Precipitation 0.01 in 0.14 in 1.27 in (1958)
Month to date precipitation 0.02 0.67  
Year to date precipitation 10.98 13.25  
Sea Level Pressure  
Sea Level Pressure 30.02 in    
Wind  
Wind Speed 2 mph (North)    
Max Wind Speed 9 mph    
Max Gust Speed 12 mph    
Visibility 10 miles    
Events Rain    
T = Trace of Precipitation, MM = Missing Value Source: NWS Daily Summary

Daily Weather History Graph

Daily Weather History Graph

Search for Another Location

Airport or City:

Trip Planner

Search our weather history database for the weather conditions in past years. The results will help you decide how hot, cold, wet, or windy it might be!

Date:

Astronomy

May. 05, 2014 Rise Set
Actual Time 6:15 AM EDT 8:17 PM EDT
Civil Twilight 5:46 AM EDT 8:47 PM EDT
Nautical Twilight 5:10 AM EDT 9:23 PM EDT
Astronomical Twilight 4:31 AM EDT 10:02 PM EDT
Moon 11:33 AM EDT (5/5) 1:00 AM EDT (5/5)
Length of Visible Light 15h 01m
Length of Day
14h 01m
Waxing Crescent, 36% of the Moon is Illuminated
May 5
Waxing Crescent
May 6
First Quarter
May 14
Full
May 21
Last Quarter
May 28
New

Hourly Weather History & Observations

Time (EDT) Temp. Windchill Dew Point Humidity Pressure Visibility Wind Dir Wind Speed Gust Speed Precip Events Conditions
12:53 AM 46.9 °F - 30.9 °F 54% 30.07 in 10.0 mi North 9.2 mph - N/A   Clear
1:53 AM 46.0 °F 44.8 °F 30.0 °F 54% 30.06 in 10.0 mi NNW 3.5 mph - N/A   Clear
2:53 AM 45.0 °F - 30.0 °F 56% 30.04 in 10.0 mi Calm Calm - N/A   Clear
3:53 AM 42.1 °F 39.2 °F 30.0 °F 62% 30.04 in 10.0 mi NNE 4.6 mph - N/A   Clear
4:53 AM 42.1 °F - 30.0 °F 62% 30.05 in 10.0 mi Calm Calm - N/A   Clear
5:53 AM 37.9 °F 35.5 °F 30.9 °F 76% 30.06 in 10.0 mi SSW 3.5 mph - N/A   Clear
6:53 AM 37.0 °F 34.5 °F 32.0 °F 82% 30.09 in 10.0 mi SSW 3.5 mph - N/A   Clear
7:53 AM 43.0 °F - 33.1 °F 68% 30.11 in 10.0 mi Calm Calm - N/A   Clear
8:53 AM 48.0 °F - 32.0 °F 54% 30.09 in 10.0 mi NE 5.8 mph - N/A   Clear
9:53 AM 51.1 °F - 34.0 °F 52% 30.08 in 10.0 mi NNE 4.6 mph - N/A   Overcast
10:53 AM 52.0 °F - 33.1 °F 49% 30.06 in 10.0 mi Calm Calm - N/A   Partly Cloudy
11:53 AM 55.0 °F - 34.0 °F 45% 30.05 in 10.0 mi North 3.5 mph - N/A   Scattered Clouds
12:53 PM 55.0 °F - 33.1 °F 43% 30.03 in 10.0 mi Calm Calm - N/A   Overcast
2:53 PM 57.0 °F - 34.0 °F 42% 30.01 in 10.0 mi Calm Calm - N/A   Overcast
3:53 PM 54.0 °F - 39.0 °F 57% 29.97 in 10.0 mi Calm Calm - 0.00 in Rain Light Rain
4:53 PM 55.0 °F - 37.9 °F 53% 29.97 in 10.0 mi NW 3.5 mph - 0.01 in   Overcast
5:53 PM 55.0 °F - 39.0 °F 55% 29.96 in 10.0 mi Calm Calm - 0.00 in   Overcast
6:53 PM 54.0 °F - 37.9 °F 55% 29.96 in 10.0 mi ENE 3.5 mph - N/A   Overcast
7:53 PM 53.1 °F - 37.9 °F 57% 29.94 in 10.0 mi NNE 4.6 mph - N/A   Overcast
8:53 PM 53.1 °F - 37.9 °F 57% 29.92 in 10.0 mi Calm Calm - N/A   Scattered Clouds
9:53 PM 52.0 °F - 37.9 °F 59% 29.93 in 10.0 mi Calm Calm - N/A   Mostly Cloudy
10:53 PM 50.0 °F - 37.9 °F 63% 29.92 in 10.0 mi North 3.5 mph - N/A   Scattered Clouds